CAPE
0 0 0 0 0 0 0 0 0 0 0 0 0 0 0 0 0 0 0 0 0 0
0 0 0 0 0 0 0 0 0 0 0 0 0 0 0 0 0 0 0 0 0 0
0 0 0 0 0 0 0 0 0 0 0 0 0 0 0 0 0 0 0 0 0 0
0 0 0 0 0 0 0 0 0 0 0 0 0 0 0 0 0 0 0 0 0 0
0 0 0 0 0 0 0 0 0 0 0 0 0 0 0 0 0 0 0 0 0 0
0 0 0 0 0 0 0 0 0 0 0 0 0 0 0 0 0 0 0 0 0 0
0 0 0 0 0 0 0 0 0 0 0 0 0 0 0 0 0 0 0 0 0 0
0 0 0 0 0 0 0 0 0 0 0 0 0 0 0 0 0 0 0 0 0 0
0 0 0 0 0 0 0 0 0 0 0 0 0 0 0 0 0 0 0 0 0 0
0 0 0 0 0 0 0 0 0 0 0 0 0 0 0 0 0 0 0 0 0 0
0 0 0 0 0 0 0 0 0 0 0 0 0 0 0 0 0 0 0 0 0 0
0 0 0 0 0 0 0 0 0 0 0 0 0 0 0 0 0 0 0 0 0 0
0 0 0 0 0 0 0 0 0 0 0 0 0 0 0 0 0 0 0 0 0 0
0 0 0 0 0 0 0 0 0 0 0 0 0 0 0 0 0 0 0 0 0 0
CIN
0 0 0 0 0 0 0 0 0 0 0 0 0 0 0 0 0 0 0 0 0 0
0 0 0 0 0 0 0 0 0 0 0 0 0 0 0 0 0 0 0 0 0 0
0 0 0 0 0 0 0 0 0 0 0 0 0 0 0 0 0 0 0 0 0 0
0 0 0 0 0 0 0 0 0 0 0 0 0 0 0 0 0 0 0 0 0 0
0 0 0 0 0 0 0 0 0 0 0 0 0 0 0 0 0 0 0 0 0 0
0 0 0 0 0 0 0 0 0 0 0 0 0 0 0 0 0 0 0 0 0 0
0 0 0 0 0 0 0 0 0 0 0 0 0 0 0 0 0 0 0 0 0 0
0 0 0 0 0 0 0 0 0 0 0 0 0 0 0 0 0 0 0 0 0 0
0 0 0 0 0 0 0 0 0 0 0 0 0 0 0 0 0 0 0 0 0 0
0 0 0 0 0 0 0 0 0 0 0 0 0 0 0 0 0 0 0 0 0 0
0 0 0 0 0 0 0 0 0 0 0 0 0 0 0 0 0 0 0 0 0 0
0 0 0 0 0 0 0 0 0 0 0 0 0 0 0 0 0 0 0 0 0 0
0 0 0 0 0 0 0 0 0 0 0 0 0 0 0 0 0 0 0 0 0 0
0 0 0 0 0 0 0 0 0 0 0 0 0 0 0 0 0 0 0 0 0 0
Wind_Speed
8 5 4 6 5 5 6 5 6 5 6 5 6 6 7 5 6 6 5 7 6 5
6 6 6 7 7 6 7 6 6 6 6 6 6 7 8 5 6 6 6 6 6 5
8 8 6 6 7 7 6 7 6 6 6 7 7 7 7 5 6 6 4 3 6 5
8 8 6 7 7 7 6 6 7 7 7 7 7 6 6 6 6 6 6 5 6 6
10 8 8 7 8 6 6 6 7 7 7 7 7 6 6 6 5 6 6 6 6 7
10 9 8 8 7 8 7 6 8 7 8 7 7 6 5 6 5 6 6 5 5 6
11 11 10 9 8 8 7 7 7 7 8 9 9 8 7 5 5 5 5 5 4 6
12 11 10 9 8 7 7 7 7 8 9 9 9 7 6 8 5 4 5 5 6 6
14 13 11 9 8 7 7 7 7 7 9 10 7 8 6 6 5 3 5 5 6 4
14 14 12 11 10 9 7 6 7 7 10 10 7 7 7 7 5 4 5 4 6 6
15 15 13 12 11 9 7 7 6 6 10 10 6 6 8 11 5 2 5 4 7 5
16 16 15 13 12 10 9 7 6 6 7 11 6 6 9 9 5 5 4 8 8 7
16 16 15 13 12 9 8 9 7 7 7 13 8 7 8 8 3 4 4 6 7 11
16 16 14 13 9 10 9 9 8 9 6 7 10 6 8 10 5 4 4 4 4 4
Wind_Direction
126 144 129 112 103 94 95 99 101 94 84 69 52 68 70 46 62 49 63 48 26 45
114 105 99 91 99 99 113 120 104 102 85 70 57 50 78 56 56 57 61 53 39 45
111 113 126 123 108 101 98 111 114 96 91 77 65 54 66 69 65 70 52 63 60 49
132 126 125 117 125 120 120 120 110 96 88 84 71 61 57 92 63 68 66 37 52 46
131 139 130 131 122 124 116 109 102 97 93 84 79 68 75 64 61 65 54 33 31 41
142 140 134 131 130 121 116 118 109 104 96 87 72 53 71 64 61 72 64 43 29 47
152 145 143 140 142 135 137 126 122 110 104 89 65 44 11 57 67 50 76 59 23 68
148 144 144 143 139 133 130 124 125 117 103 95 79 52 14 341 12 70 54 52 23 77
148 146 145 142 134 130 119 129 127 122 113 94 76 50 36 352 332 341 56 39 41 48
154 149 149 142 145 139 138 136 122 117 107 99 85 35 15 357 304 343 66 52 61 6
154 150 152 153 151 146 141 136 129 128 119 109 84 34 9 341 255 73 81 70 78 39
159 156 156 157 152 148 148 143 130 132 129 119 103 48 18 350 349 65 64 69 54 57
161 159 160 153 154 154 148 139 145 133 99 115 115 76 36 19 14 47 39 93 119 75
161 159 157 149 151 150 151 144 132 129 144 115 126 110 68 24 74 26 317 78 48 24